Voltar ao catálogo

DELTA 1 DEB

LostSSO
NORAD 42582·DEBRIS·🇺🇸 United States

Lançado Nov 6, 1973 de Vandenberg Space Force Base

Loading…

Próximas Passagens (próximas 24 horas)

TLE

ObsoletoSource: Space-Track

Época: Nov 8, 2024, 15:36 UTC

1 42582U 73086HW  24313.65055970  .00000236  00000-0  19484-2 0  9994
2 42582 101.8521 257.0136 0012858 115.7749 244.4646 12.45764885498497

Acompanhe DELTA 1 DEB em tempo real com AllMySat

Download on the App Store